Time,TemperatureF,DewpointF,PressureIn,WindDirection,WindDirectionDegrees,WindSpeedMPH,WindSpeedGustMPH,Humidity,HourlyPrecipIn,Conditions,Clouds,dailyrainin,SolarRadiationWatts/m^2,SoftwareType,DateUTC
2013-08-16 00:03:00,61.0,58.0,-100.00,NNW,331,6.0,7.0,91,0.00,,,0.00,0.000000,,2013-08-16 04:03:00,
2013-08-16 00:43:00,60.0,58.0,-100.00,NNW,340,6.0,7.0,92,0.00,,,0.00,0.000000,,2013-08-16 04:43:00,
2013-08-16 00:54:00,60.0,58.0,-100.00,NNW,340,6.0,7.0,92,0.00,,,0.00,0.000000,,2013-08-16 04:54:00,
2013-08-16 01:02:00,60.0,58.0,-100.00,NNW,340,6.0,7.0,92,0.00,,,0.00,0.000000,,2013-08-16 05:02:00,
2013-08-16 03:00:00,58.0,55.0,-100.00,NNW,343,6.0,7.0,89,0.00,,,0.00,0.000000,,2013-08-16 07:00:00,
2013-08-16 03:42:00,58.0,55.0,-100.00,NNW,336,6.0,8.0,90,0.00,,,0.00,0.000000,,2013-08-16 07:42:00,
2013-08-16 03:52:00,58.0,55.0,-100.00,NNW,336,6.0,8.0,90,0.00,,,0.00,0.000000,,2013-08-16 07:52:00,
2013-08-16 04:01:00,58.0,55.0,-100.00,NNW,336,6.0,8.0,90,0.00,,,0.00,0.000000,,2013-08-16 08:01:00,
2013-08-16 04:42:00,57.0,55.0,-100.00,NNW,334,5.0,10.0,92,0.00,,,0.00,0.000000,,2013-08-16 08:42:00,
2013-08-16 04:52:00,57.0,55.0,-100.00,NNW,334,5.0,10.0,92,0.00,,,0.00,0.000000,,2013-08-16 08:52:00,
2013-08-16 05:01:00,57.0,55.0,-100.00,NNW,334,5.0,10.0,92,0.00,,,0.00,0.000000,,2013-08-16 09:01:00,
2013-08-16 05:42:00,58.0,55.0,-100.00,North,352,6.0,7.0,90,0.00,,,0.00,0.000000,,2013-08-16 09:42:00,
2013-08-16 05:53:00,58.0,55.0,-100.00,North,352,6.0,7.0,90,0.00,,,0.00,0.000000,,2013-08-16 09:53:00,
2013-08-16 06:03:00,58.0,55.0,-100.00,North,352,6.0,7.0,90,0.00,,,0.00,0.000000,,2013-08-16 10:03:00,
2013-08-16 06:42:00,58.0,55.0,-100.00,NNW,343,5.0,9.0,90,0.00,,,0.00,0.000000,,2013-08-16 10:42:00,
2013-08-16 06:53:00,58.0,55.0,-100.00,NNW,343,5.0,9.0,90,0.00,,,0.00,0.000000,,2013-08-16 10:53:00,
2013-08-16 07:02:00,58.0,55.0,-100.00,NNW,343,5.0,9.0,90,0.00,,,0.00,0.000000,,2013-08-16 11:02:00,
2013-08-16 07:42:00,56.0,55.0,-100.00,NNW,342,6.0,9.0,96,0.00,,,0.00,3.000000,,2013-08-16 11:42:00,
2013-08-16 07:52:00,56.0,55.0,-100.00,NNW,342,6.0,9.0,96,0.00,,,0.00,3.000000,,2013-08-16 11:52:00,
2013-08-16 08:02:00,56.0,55.0,-100.00,NNW,342,6.0,9.0,96,0.00,,,0.00,3.000000,,2013-08-16 12:02:00,
2013-08-16 08:42:00,58.0,55.0,-100.00,NNW,329,5.0,9.0,91,0.00,,,0.00,39.000000,,2013-08-16 12:42:00,
2013-08-16 08:52:00,58.0,55.0,-100.00,NNW,329,5.0,9.0,91,0.00,,,0.00,39.000000,,2013-08-16 12:52:00,
2013-08-16 09:02:00,58.0,55.0,-100.00,NNW,329,5.0,9.0,91,0.00,,,0.00,39.000000,,2013-08-16 13:02:00,
2013-08-16 09:42:00,63.0,58.0,-100.00,NNW,334,4.0,9.0,84,0.00,,,0.00,212.000000,,2013-08-16 13:42:00,
2013-08-16 09:53:00,63.0,58.0,-100.00,NNW,334,4.0,9.0,84,0.00,,,0.00,212.000000,,2013-08-16 13:53:00,
2013-08-16 10:02:00,63.0,58.0,-100.00,NNW,334,4.0,9.0,84,0.00,,,0.00,212.000000,,2013-08-16 14:02:00,
2013-08-16 10:42:00,70.0,61.0,-100.00,NNW,341,2.0,7.0,72,0.00,,,0.00,488.000000,,2013-08-16 14:42:00,
2013-08-16 10:52:00,70.0,61.0,-100.00,NNW,341,2.0,7.0,72,0.00,,,0.00,488.000000,,2013-08-16 14:52:00,
2013-08-16 11:01:00,70.0,61.0,-100.00,NNW,341,2.0,7.0,72,0.00,,,0.00,488.000000,,2013-08-16 15:01:00,
2013-08-16 11:56:00,75.0,62.0,-100.00,NNW,336,5.0,8.0,63,0.00,,,0.00,735.000000,,2013-08-16 15:56:00,
2013-08-16 12:04:00,75.0,62.0,-100.00,NNW,336,5.0,8.0,63,0.00,,,0.00,735.000000,,2013-08-16 16:04:00,
2013-08-16 12:44:00,78.0,62.0,-100.00,NNW,342,2.0,8.0,57,0.00,,,0.00,942.000000,,2013-08-16 16:44:00,
2013-08-16 12:57:00,78.0,62.0,-100.00,NNW,342,2.0,8.0,57,0.00,,,0.00,942.000000,,2013-08-16 16:57:00,
2013-08-16 13:03:00,78.0,62.0,-100.00,NNW,342,2.0,8.0,57,0.00,,,0.00,942.000000,,2013-08-16 17:03:00,
2013-08-16 13:47:00,79.0,62.0,-100.00,North,350,2.0,5.0,56,0.00,,,0.00,1051.000000,,2013-08-16 17:47:00,
2013-08-16 14:00:00,79.0,62.0,-100.00,North,350,2.0,5.0,56,0.00,,,0.00,1051.000000,,2013-08-16 18:00:00,
2013-08-16 14:06:00,79.0,62.0,-100.00,North,350,2.0,5.0,56,0.00,,,0.00,1051.000000,,2013-08-16 18:06:00,
2013-08-16 14:50:00,-999.0,-99.9,-100.00,NNW,332,3.0,10.0,57,0.00,,,0.00,1005.000000,,2013-08-16 18:50:00,
2013-08-16 15:03:00,80.0,63.0,-100.00,NNW,332,3.0,10.0,57,0.00,,,0.00,1005.000000,,2013-08-16 19:03:00,
2013-08-16 15:46:00,82.0,66.0,-100.00,NNW,345,3.0,11.0,58,0.00,,,0.00,754.000000,,2013-08-16 19:46:00,
2013-08-16 15:55:00,82.0,66.0,-100.00,NNW,345,3.0,11.0,58,0.00,,,0.00,754.000000,,2013-08-16 19:55:00,
2013-08-16 16:02:00,82.0,66.0,-100.00,NNW,345,3.0,11.0,58,0.00,,,0.00,754.000000,,2013-08-16 20:02:00,
2013-08-16 16:44:00,82.0,64.0,-100.00,NNW,348,4.0,11.0,54,0.00,,,0.00,705.000000,,2013-08-16 20:44:00,
2013-08-16 16:52:00,82.0,64.0,-100.00,NNW,348,4.0,11.0,54,0.00,,,0.00,705.000000,,2013-08-16 20:52:00,
2013-08-16 17:01:00,82.0,64.0,-100.00,NNW,348,4.0,11.0,54,0.00,,,0.00,705.000000,,2013-08-16 21:01:00,
2013-08-16 17:40:00,-999.0,-99.9,-100.00,NNW,339,4.0,13.0,-999,0.00,,,0.00,610.000000,,2013-08-16 21:40:00,
2013-08-16 17:54:00,77.0,63.0,-100.00,NNW,339,4.0,13.0,62,0.00,,,0.00,610.000000,,2013-08-16 21:54:00,
2013-08-16 18:07:00,77.0,63.0,-100.00,NNW,339,4.0,13.0,62,0.00,,,0.00,610.000000,,2013-08-16 22:07:00,
2013-08-16 18:09:00,77.0,63.0,-100.00,NNW,334,5.0,13.0,63,0.00,,,0.00,549.000000,,2013-08-16 22:09:00,
2013-08-16 18:43:00,77.0,63.0,-100.00,NNW,334,5.0,13.0,63,0.00,,,0.00,549.000000,,2013-08-16 22:43:00,
2013-08-16 18:52:00,77.0,63.0,-100.00,NNW,334,5.0,13.0,63,0.00,,,0.00,549.000000,,2013-08-16 22:52:00,
2013-08-16 19:42:00,73.0,62.0,-100.00,NNW,336,6.0,11.0,69,0.00,,,0.00,101.000000,,2013-08-16 23:42:00,
2013-08-16 19:52:00,73.0,62.0,-100.00,NNW,336,6.0,11.0,69,0.00,,,0.00,101.000000,,2013-08-16 23:52:00,
2013-08-16 20:02:00,73.0,62.0,-100.00,NNW,336,6.0,11.0,69,0.00,,,0.00,101.000000,,2013-08-17 00:02:00,
2013-08-16 20:42:00,70.0,62.0,-100.00,North,351,3.0,9.0,77,0.00,,,0.00,50.000000,,2013-08-17 00:42:00,
2013-08-16 20:52:00,70.0,62.0,-100.00,North,351,3.0,9.0,77,0.00,,,0.00,50.000000,,2013-08-17 00:52:00,
2013-08-16 21:01:00,70.0,62.0,-100.00,North,351,3.0,9.0,77,0.00,,,0.00,50.000000,,2013-08-17 01:01:00,
2013-08-16 21:42:00,68.0,63.0,-100.00,NNW,344,4.0,7.0,84,0.00,,,0.00,3.000000,,2013-08-17 01:42:00,
2013-08-16 21:52:00,68.0,63.0,-100.00,NNW,344,4.0,7.0,84,0.00,,,0.00,3.000000,,2013-08-17 01:52:00,
2013-08-16 22:01:00,68.0,63.0,-100.00,NNW,344,4.0,7.0,84,0.00,,,0.00,3.000000,,2013-08-17 02:01:00,
2013-08-16 22:42:00,66.0,62.0,-100.00,North,355,5.0,9.0,88,0.00,,,0.00,0.000000,,2013-08-17 02:42:00,
2013-08-16 22:52:00,66.0,62.0,-100.00,North,355,5.0,9.0,88,0.00,,,0.00,0.000000,,2013-08-17 02:52:00,
2013-08-16 23:02:00,66.0,62.0,-100.00,North,355,5.0,9.0,88,0.00,,,0.00,0.000000,,2013-08-17 03:02:00,
2013-08-16 23:43:00,65.0,61.0,-100.00,North,358,5.0,9.0,88,0.00,,,0.00,0.000000,,2013-08-17 03:43:00,
2013-08-16 23:53:00,65.0,61.0,-100.00,North,358,5.0,9.0,88,0.00,,,0.00,0.000000,,2013-08-17 03:53:00,